Time,TemperatureF,DewpointF,PressureIn,WindDirection,WindDirectionDegrees,WindSpeedMPH,WindSpeedGustMPH,Humidity,HourlyPrecipIn,Conditions,Clouds,dailyrainin,SoftwareType,DateUTC
2013-03-15 00:03:00,28.0,14.0,30.06,NW,318,3.0,7.0,56,-99.99,,,-99.99,,2013-03-15 04:03:00,
2013-03-15 00:13:00,28.0,14.0,30.06,NW,318,3.0,7.0,56,-99.99,,,-99.99,,2013-03-15 04:13:00,
2013-03-15 00:23:00,28.0,14.0,30.06,North,358,3.0,5.0,56,-99.99,,,-99.99,,2013-03-15 04:23:00,
2013-03-15 00:33:00,28.0,14.0,30.06,NW,315,2.0,5.0,56,-99.99,,,-99.99,,2013-03-15 04:33:00,
2013-03-15 00:43:00,28.0,14.0,30.06,NW,315,2.0,5.0,56,-99.99,,,-99.99,,2013-03-15 04:43:00,
2013-03-15 00:53:00,28.0,14.0,30.06,NNW,344,3.0,8.0,55,-99.99,,,-99.99,,2013-03-15 04:53:00,
2013-03-15 01:02:00,28.0,14.0,30.06,NNE,15,4.0,6.0,54,-99.99,,,-99.99,,2013-03-15 05:02:00,
2013-03-15 01:12:00,28.0,14.0,30.06,NNE,15,4.0,6.0,54,-99.99,,,-99.99,,2013-03-15 05:12:00,
2013-03-15 01:23:00,28.0,14.0,30.06,NW,316,3.0,9.0,54,-99.99,,,-99.99,,2013-03-15 05:23:00,
2013-03-15 01:32:00,28.0,13.0,30.07,NW,318,4.0,8.0,53,-99.99,,,-99.99,,2013-03-15 05:32:00,
2013-03-15 01:42:00,28.0,13.0,30.07,NW,318,4.0,8.0,53,-99.99,,,-99.99,,2013-03-15 05:42:00,
2013-03-15 01:52:00,28.0,13.0,30.07,NNW,340,3.0,7.0,53,-99.99,,,-99.99,,2013-03-15 05:52:00,
2013-03-15 02:02:00,28.0,13.0,30.07,NW,309,3.0,7.0,52,-99.99,,,-99.99,,2013-03-15 06:02:00,
2013-03-15 02:12:00,28.0,13.0,30.07,NW,309,3.0,7.0,52,-99.99,,,-99.99,,2013-03-15 06:12:00,
2013-03-15 02:22:00,28.0,13.0,30.07,NNW,329,4.0,6.0,52,-99.99,,,-99.99,,2013-03-15 06:22:00,
2013-03-15 02:32:00,27.0,12.0,30.07,ENE,62,3.0,8.0,52,-99.99,,,-99.99,,2013-03-15 06:32:00,
2013-03-15 02:42:00,27.0,12.0,30.07,ENE,62,3.0,8.0,52,-99.99,,,-99.99,,2013-03-15 06:42:00,
2013-03-15 02:53:00,27.0,12.0,30.07,NW,309,4.0,8.0,52,-99.99,,,-99.99,,2013-03-15 06:53:00,
2013-03-15 03:02:00,27.0,12.0,30.07,North,354,3.0,6.0,53,-99.99,,,-99.99,,2013-03-15 07:02:00,
2013-03-15 03:12:00,27.0,12.0,30.07,North,354,3.0,6.0,53,-99.99,,,-99.99,,2013-03-15 07:12:00,
2013-03-15 03:22:00,27.0,12.0,30.07,WNW,283,3.0,6.0,53,-99.99,,,-99.99,,2013-03-15 07:22:00,
2013-03-15 03:32:00,27.0,13.0,30.07,NNW,346,3.0,5.0,54,-99.99,,,-99.99,,2013-03-15 07:32:00,
2013-03-15 03:42:00,27.0,13.0,30.07,NNW,346,3.0,5.0,54,-99.99,,,-99.99,,2013-03-15 07:42:00,
2013-03-15 03:52:00,27.0,13.0,30.06,NNW,341,3.0,8.0,54,-99.99,,,-99.99,,2013-03-15 07:52:00,
2013-03-15 04:02:00,27.0,13.0,30.06,NNW,347,4.0,7.0,55,-99.99,,,-99.99,,2013-03-15 08:02:00,
2013-03-15 04:12:00,27.0,13.0,30.06,NNW,347,4.0,7.0,55,-99.99,,,-99.99,,2013-03-15 08:12:00,
2013-03-15 04:23:00,27.0,13.0,30.06,NNW,340,3.0,6.0,56,-99.99,,,-99.99,,2013-03-15 08:23:00,
2013-03-15 04:33:00,27.0,13.0,30.06,NW,315,4.0,9.0,56,-99.99,,,-99.99,,2013-03-15 08:33:00,
2013-03-15 04:42:00,27.0,13.0,30.06,NW,315,4.0,9.0,56,-99.99,,,-99.99,,2013-03-15 08:42:00,
2013-03-15 04:52:00,27.0,14.0,30.06,NW,307,3.0,8.0,57,-99.99,,,-99.99,,2013-03-15 08:52:00,
2013-03-15 05:02:00,26.0,13.0,30.07,NW,304,3.0,7.0,57,-99.99,,,-99.99,,2013-03-15 09:02:00,
2013-03-15 05:12:00,26.0,13.0,30.07,NW,304,3.0,7.0,57,-99.99,,,-99.99,,2013-03-15 09:12:00,
2013-03-15 05:22:00,26.0,13.0,30.07,North,0,3.0,6.0,57,-99.99,,,-99.99,,2013-03-15 09:22:00,
2013-03-15 05:33:00,26.0,13.0,30.08,NNE,12,3.0,5.0,58,-99.99,,,-99.99,,2013-03-15 09:33:00,
2013-03-15 05:43:00,26.0,13.0,30.08,NNE,12,3.0,5.0,58,-99.99,,,-99.99,,2013-03-15 09:43:00,
2013-03-15 05:53:00,26.0,13.0,30.08,NNW,336,4.0,7.0,57,-99.99,,,-99.99,,2013-03-15 09:53:00,
2013-03-15 06:03:00,25.0,12.0,30.08,North,354,4.0,8.0,57,-99.99,,,-99.99,,2013-03-15 10:03:00,
2013-03-15 06:13:00,25.0,12.0,30.08,North,354,4.0,8.0,57,-99.99,,,-99.99,,2013-03-15 10:13:00,
2013-03-15 06:23:00,25.0,12.0,30.09,NW,316,3.0,7.0,58,-99.99,,,-99.99,,2013-03-15 10:23:00,
2013-03-15 06:33:00,25.0,13.0,30.09,NW,315,3.0,7.0,59,-99.99,,,-99.99,,2013-03-15 10:33:00,
2013-03-15 06:43:00,25.0,13.0,30.09,NW,315,3.0,7.0,59,-99.99,,,-99.99,,2013-03-15 10:43:00,
2013-03-15 06:52:00,25.0,12.0,30.10,WNW,302,4.0,10.0,58,-99.99,,,-99.99,,2013-03-15 10:52:00,
2013-03-15 07:03:00,25.0,12.0,30.10,NW,309,4.0,7.0,58,-99.99,,,-99.99,,2013-03-15 11:03:00,
2013-03-15 07:12:00,25.0,12.0,30.10,NW,309,4.0,7.0,58,-99.99,,,-99.99,,2013-03-15 11:12:00,
2013-03-15 07:23:00,25.0,12.0,30.10,NW,318,4.0,7.0,57,-99.99,,,-99.99,,2013-03-15 11:23:00,
2013-03-15 07:32:00,25.0,12.0,30.10,NW,314,4.0,7.0,56,-99.99,,,-99.99,,2013-03-15 11:32:00,
2013-03-15 07:42:00,25.0,12.0,30.10,NW,314,4.0,7.0,56,-99.99,,,-99.99,,2013-03-15 11:42:00,
2013-03-15 07:52:00,25.0,12.0,30.10,NW,321,4.0,6.0,57,-99.99,,,-99.99,,2013-03-15 11:52:00,
2013-03-15 08:02:00,25.0,12.0,30.10,NNW,335,3.0,7.0,56,-99.99,,,-99.99,,2013-03-15 12:02:00,
2013-03-15 08:12:00,25.0,12.0,30.10,NNW,335,3.0,7.0,56,-99.99,,,-99.99,,2013-03-15 12:12:00,
2013-03-15 08:23:00,25.0,12.0,30.10,NW,311,2.0,5.0,56,-99.99,,,-99.99,,2013-03-15 12:23:00,
2013-03-15 08:32:00,25.0,12.0,30.10,NW,305,2.0,5.0,56,-99.99,,,-99.99,,2013-03-15 12:32:00,
2013-03-15 08:42:00,25.0,12.0,30.10,NW,305,2.0,5.0,56,-99.99,,,-99.99,,2013-03-15 12:42:00,
2013-03-15 08:52:00,25.0,12.0,30.10,NNW,332,3.0,5.0,56,-99.99,,,-99.99,,2013-03-15 12:52:00,
2013-03-15 09:02:00,26.0,12.0,30.11,NNW,337,2.0,5.0,56,-99.99,,,-99.99,,2013-03-15 13:02:00,
2013-03-15 09:12:00,26.0,12.0,30.11,NNW,337,2.0,5.0,56,-99.99,,,-99.99,,2013-03-15 13:12:00,
2013-03-15 09:22:00,26.0,12.0,30.11,WNW,290,2.0,5.0,56,-99.99,,,-99.99,,2013-03-15 13:22:00,
2013-03-15 09:32:00,27.0,13.0,30.10,North,8,2.0,5.0,55,-99.99,,,-99.99,,2013-03-15 13:32:00,
2013-03-15 09:42:00,27.0,13.0,30.10,North,8,2.0,5.0,55,-99.99,,,-99.99,,2013-03-15 13:42:00,
2013-03-15 09:53:00,27.0,13.0,30.10,NNW,329,2.0,5.0,54,-99.99,,,-99.99,,2013-03-15 13:53:00,
2013-03-15 10:02:00,28.0,14.0,30.10,North,349,2.0,4.0,54,-99.99,,,-99.99,,2013-03-15 14:02:00,
2013-03-15 10:12:00,28.0,14.0,30.10,North,349,2.0,4.0,54,-99.99,,,-99.99,,2013-03-15 14:12:00,
2013-03-15 10:22:00,28.0,13.0,30.10,North,1,3.0,5.0,52,-99.99,,,-99.99,,2013-03-15 14:22:00,
2013-03-15 10:32:00,29.0,14.0,30.09,NW,316,3.0,5.0,52,-99.99,,,-99.99,,2013-03-15 14:32:00,
2013-03-15 10:42:00,29.0,14.0,30.09,NW,316,3.0,5.0,52,-99.99,,,-99.99,,2013-03-15 14:42:00,
2013-03-15 10:53:00,29.0,13.0,30.09,West,276,2.0,6.0,51,-99.99,,,-99.99,,2013-03-15 14:53:00,
2013-03-15 11:02:00,29.0,13.0,30.08,WNW,290,3.0,7.0,51,-99.99,,,-99.99,,2013-03-15 15:02:00,
2013-03-15 11:13:00,29.0,13.0,30.08,WNW,290,3.0,7.0,51,-99.99,,,-99.99,,2013-03-15 15:13:00,
2013-03-15 11:23:00,30.0,14.0,30.08,WNW,288,2.0,5.0,50,-99.99,,,-99.99,,2013-03-15 15:23:00,
2013-03-15 11:33:00,31.0,13.0,30.06,West,267,2.0,6.0,47,-99.99,,,-99.99,,2013-03-15 15:33:00,
2013-03-15 11:42:00,31.0,13.0,30.06,West,267,2.0,6.0,47,-99.99,,,-99.99,,2013-03-15 15:42:00,
2013-03-15 11:53:00,33.0,15.0,30.06,WNW,283,2.0,6.0,48,-99.99,,,-99.99,,2013-03-15 15:53:00,
2013-03-15 12:03:00,33.0,14.0,30.04,WSW,247,3.0,7.0,45,-99.99,,,-99.99,,2013-03-15 16:03:00,
2013-03-15 12:12:00,34.0,17.0,30.04,WSW,239,2.0,6.0,49,-99.99,,,-99.99,,2013-03-15 16:12:00,
2013-03-15 12:23:00,34.0,17.0,30.04,WSW,239,2.0,6.0,49,-99.99,,,-99.99,,2013-03-15 16:23:00,
2013-03-15 12:32:00,35.0,17.0,30.03,WSW,253,2.0,7.0,48,-99.99,,,-99.99,,2013-03-15 16:32:00,
2013-03-15 12:42:00,35.0,17.0,30.03,WSW,253,2.0,7.0,48,-99.99,,,-99.99,,2013-03-15 16:42:00,
2013-03-15 12:52:00,35.0,17.0,30.02,NW,319,3.0,5.0,48,-99.99,,,-99.99,,2013-03-15 16:52:00,
2013-03-15 13:02:00,35.0,17.0,30.01,West,271,3.0,6.0,48,-99.99,,,-99.99,,2013-03-15 17:02:00,
2013-03-15 13:12:00,35.0,17.0,30.01,West,271,3.0,6.0,48,-99.99,,,-99.99,,2013-03-15 17:12:00,
2013-03-15 13:22:00,36.0,18.0,29.99,WNW,287,3.0,6.0,47,-99.99,,,-99.99,,2013-03-15 17:22:00,
2013-03-15 13:32:00,36.0,18.0,29.98,West,262,4.0,10.0,47,-99.99,,,-99.99,,2013-03-15 17:32:00,
2013-03-15 13:42:00,36.0,18.0,29.98,West,262,4.0,10.0,47,-99.99,,,-99.99,,2013-03-15 17:42:00,
2013-03-15 13:53:00,37.0,20.0,29.98,NW,322,3.0,8.0,49,-99.99,,,-99.99,,2013-03-15 17:53:00,
2013-03-15 14:03:00,36.0,20.0,29.98,SW,221,4.0,10.0,51,-99.99,,,-99.99,,2013-03-15 18:03:00,
2013-03-15 14:12:00,36.0,20.0,29.98,SW,221,4.0,10.0,51,-99.99,,,-99.99,,2013-03-15 18:12:00,
2013-03-15 14:22:00,38.0,17.0,29.96,NW,316,3.0,7.0,42,-99.99,,,-99.99,,2013-03-15 18:22:00,
2013-03-15 14:32:00,38.0,17.0,29.95,West,269,4.0,8.0,42,-99.99,,,-99.99,,2013-03-15 18:32:00,
2013-03-15 14:42:00,38.0,17.0,29.95,West,269,4.0,8.0,42,-99.99,,,-99.99,,2013-03-15 18:42:00,
2013-03-15 14:53:00,38.0,18.0,29.94,WSW,246,3.0,9.0,43,-99.99,,,-99.99,,2013-03-15 18:53:00,
2013-03-15 15:02:00,39.0,18.0,29.93,WNW,293,4.0,12.0,43,-99.99,,,-99.99,,2013-03-15 19:02:00,
2013-03-15 15:12:00,39.0,18.0,29.93,WNW,293,4.0,12.0,43,-99.99,,,-99.99,,2013-03-15 19:12:00,
2013-03-15 15:23:00,39.0,18.0,29.92,WNW,297,4.0,13.0,43,-99.99,,,-99.99,,2013-03-15 19:23:00,
2013-03-15 15:32:00,39.0,20.0,29.91,WNW,300,6.0,13.0,46,-99.99,,,-99.99,,2013-03-15 19:32:00,
2013-03-15 15:42:00,39.0,20.0,29.91,WNW,300,6.0,13.0,46,-99.99,,,-99.99,,2013-03-15 19:42:00,
2013-03-15 15:53:00,39.0,21.0,29.91,WNW,290,5.0,10.0,48,-99.99,,,-99.99,,2013-03-15 19:53:00,
2013-03-15 16:02:00,39.0,22.0,29.90,West,279,6.0,19.0,50,-99.99,,,-99.99,,2013-03-15 20:02:00,
2013-03-15 16:12:00,39.0,22.0,29.90,West,279,6.0,19.0,50,-99.99,,,-99.99,,2013-03-15 20:12:00,
2013-03-15 16:22:00,39.0,23.0,29.90,WNW,291,5.0,12.0,52,-99.99,,,-99.99,,2013-03-15 20:22:00,
2013-03-15 16:32:00,39.0,24.0,29.90,NW,316,4.0,12.0,54,-99.99,,,-99.99,,2013-03-15 20:32:00,
2013-03-15 16:42:00,39.0,24.0,29.90,NW,316,4.0,12.0,54,-99.99,,,-99.99,,2013-03-15 20:42:00,
2013-03-15 16:52:00,39.0,25.0,29.90,North,356,4.0,9.0,57,-99.99,,,-99.99,,2013-03-15 20:52:00,
2013-03-15 17:02:00,38.0,25.0,29.89,West,259,5.0,9.0,59,-99.99,,,-99.99,,2013-03-15 21:02:00,
2013-03-15 17:12:00,38.0,25.0,29.89,West,259,5.0,9.0,59,-99.99,,,-99.99,,2013-03-15 21:12:00,
2013-03-15 17:22:00,38.0,25.0,29.89,WNW,293,4.0,8.0,59,-99.99,,,-99.99,,2013-03-15 21:22:00,
2013-03-15 17:33:00,37.0,25.0,29.89,WNW,293,3.0,7.0,62,-99.99,,,-99.99,,2013-03-15 21:33:00,
2013-03-15 17:43:00,37.0,25.0,29.89,WNW,293,3.0,7.0,62,-99.99,,,-99.99,,2013-03-15 21:43:00,
2013-03-15 17:52:00,37.0,26.0,29.89,West,264,3.0,8.0,65,-99.99,,,-99.99,,2013-03-15 21:52:00,
2013-03-15 18:04:00,38.0,28.0,29.89,West,278,3.0,7.0,66,-99.99,,,-99.99,,2013-03-15 22:04:00,
2013-03-15 18:14:00,38.0,28.0,29.89,West,278,3.0,7.0,66,-99.99,,,-99.99,,2013-03-15 22:14:00,
2013-03-15 18:22:00,38.0,28.0,29.89,WNW,284,3.0,8.0,66,-99.99,,,-99.99,,2013-03-15 22:22:00,
2013-03-15 18:32:00,38.0,28.0,29.89,WNW,290,2.0,5.0,66,-99.99,,,-99.99,,2013-03-15 22:32:00,
2013-03-15 18:42:00,38.0,28.0,29.89,WNW,290,2.0,5.0,66,-99.99,,,-99.99,,2013-03-15 22:42:00,
2013-03-15 18:53:00,38.0,27.0,29.89,WNW,302,3.0,6.0,64,-99.99,,,-99.99,,2013-03-15 22:53:00,
2013-03-15 19:03:00,38.0,27.0,29.89,WNW,293,3.0,9.0,64,-99.99,,,-99.99,,2013-03-15 23:03:00,
2013-03-15 19:12:00,38.0,27.0,29.89,WNW,293,3.0,9.0,64,-99.99,,,-99.99,,2013-03-15 23:12:00,
2013-03-15 19:22:00,38.0,27.0,29.89,NW,315,2.0,5.0,64,-99.99,,,-99.99,,2013-03-15 23:22:00,
2013-03-15 19:32:00,38.0,27.0,29.90,NNW,343,3.0,7.0,64,-99.99,,,-99.99,,2013-03-15 23:32:00,
2013-03-15 19:42:00,38.0,27.0,29.90,NNW,343,3.0,7.0,64,-99.99,,,-99.99,,2013-03-15 23:42:00,
2013-03-15 19:53:00,38.0,27.0,29.91,NW,316,3.0,7.0,65,-99.99,,,-99.99,,2013-03-15 23:53:00,
2013-03-15 20:03:00,38.0,28.0,29.91,NNW,329,3.0,7.0,67,-99.99,,,-99.99,,2013-03-16 00:03:00,
2013-03-15 20:12:00,38.0,28.0,29.91,NNW,329,3.0,7.0,67,-99.99,,,-99.99,,2013-03-16 00:12:00,
2013-03-15 20:22:00,38.0,29.0,29.91,NW,316,3.0,6.0,70,-99.99,,,-99.99,,2013-03-16 00:22:00,
2013-03-15 20:32:00,38.0,30.0,29.91,WNW,285,4.0,8.0,72,-99.99,,,-99.99,,2013-03-16 00:32:00,
2013-03-15 20:42:00,38.0,30.0,29.91,WNW,285,4.0,8.0,72,-99.99,,,-99.99,,2013-03-16 00:42:00,
2013-03-15 20:52:00,37.0,29.0,29.91,NW,311,3.0,7.0,74,-99.99,,,-99.99,,2013-03-16 00:52:00,
2013-03-15 21:03:00,37.0,30.0,29.91,WNW,284,3.0,7.0,75,-99.99,,,-99.99,,2013-03-16 01:03:00,
2013-03-15 21:12:00,37.0,30.0,29.91,WNW,284,3.0,7.0,75,-99.99,,,-99.99,,2013-03-16 01:12:00,
2013-03-15 21:22:00,37.0,30.0,29.91,NNW,329,3.0,6.0,76,-99.99,,,-99.99,,2013-03-16 01:22:00,
2013-03-15 21:32:00,37.0,30.0,29.91,NNW,346,2.0,6.0,76,-99.99,,,-99.99,,2013-03-16 01:32:00,
2013-03-15 21:42:00,37.0,30.0,29.91,NNW,346,2.0,6.0,76,-99.99,,,-99.99,,2013-03-16 01:42:00,
2013-03-15 21:53:00,37.0,30.0,29.91,WNW,287,2.0,4.0,77,-99.99,,,-99.99,,2013-03-16 01:53:00,
2013-03-15 22:02:00,36.0,29.0,29.91,NW,308,2.0,7.0,76,-99.99,,,-99.99,,2013-03-16 02:02:00,
2013-03-15 22:12:00,36.0,29.0,29.91,NW,308,2.0,7.0,76,-99.99,,,-99.99,,2013-03-16 02:12:00,
2013-03-15 22:33:00,36.0,29.0,29.92,NW,314,3.0,5.0,75,-99.99,,,-99.99,,2013-03-16 02:33:00,
2013-03-15 22:42:00,36.0,29.0,29.92,NW,314,3.0,5.0,75,-99.99,,,-99.99,,2013-03-16 02:42:00,
2013-03-15 22:52:00,36.0,29.0,29.92,NW,309,3.0,8.0,74,-99.99,,,-99.99,,2013-03-16 02:52:00,
2013-03-15 23:02:00,36.0,29.0,29.92,WNW,284,2.0,4.0,74,-99.99,,,-99.99,,2013-03-16 03:02:00,
2013-03-15 23:12:00,36.0,29.0,29.92,WNW,284,2.0,4.0,74,-99.99,,,-99.99,,2013-03-16 03:12:00,
2013-03-15 23:22:00,35.0,27.0,29.92,NNW,347,2.0,5.0,73,-99.99,,,-99.99,,2013-03-16 03:22:00,
2013-03-15 23:32:00,35.0,27.0,29.92,NNW,347,2.0,5.0,73,-99.99,,,-99.99,,2013-03-16 03:32:00,
2013-03-15 23:43:00,35.0,27.0,29.92,NNW,347,2.0,5.0,73,-99.99,,,-99.99,,2013-03-16 03:43:00,
2013-03-15 23:53:00,35.0,26.0,29.93,NW,307,2.0,6.0,70,-99.99,,,-99.99,,2013-03-16 03:53:00,